Weather History for Milton, FL

Change the Weather History Date:

Monday, January 21, 2013

  Actual Average (KNSE) Record (KNSE)
Temperature  
Mean Temperature 52 °F -  
Max Temperature 66 °F 59 °F 78 °F (2012)
Min Temperature 39 °F 40 °F 21 °F (2009)
Degree Days  
Heating Degree Days 12    
Growing Degree Days 2 (Base 50)    
Moisture  
Dew Point 39 °F    
Average Humidity 67    
Maximum Humidity 96    
Minimum Humidity 34    
Precipitation  
Precipitation 0.00 in - - ()
Sea Level Pressure  
Sea Level Pressure 30.13 in    
Wind  
Wind Speed 5 mph (NNW)    
Max Wind Speed 9 mph    
Max Gust Speed -    
Visibility 9 miles    
Events      
Averages and records for this station are not official NWS values.
T = Trace of Precipitation, MM = Missing Value Source: NWS Daily Summary

Daily Weather History Graph

Daily Weather History Graph

Search for Another Location

Airport:

Trip Planner

Search our weather history database for the weather conditions in past years. The results will help you decide how hot, cold, wet, or windy it might be!

Date:

Astronomy

Jan. 21, 2013 Rise Set
Actual Time 6:44 AM CST 5:14 PM CST
Civil Twilight 6:18 AM CST 5:40 PM CST
Nautical Twilight 5:49 AM CST 6:09 PM CST
Astronomical Twilight 5:20 AM CST 6:38 PM CST
Moon 12:55 PM CST (1/21) 2:11 AM CST (1/21)
Length of Visible Light 11h 21m
Length of Day
10h 30m
Waxing Gibbous, 75% of the Moon is Illuminated
Jan 21
Waxing Gibbous
Jan 26
Full
Feb 3
Last Quarter
Feb 10
New
Feb 17
First Quarter

Hourly Weather History & Observations

Time (CST) Temp. Windchill Dew Point Humidity Pressure Visibility Wind Dir Wind Speed Gust Speed Precip Events Conditions
12:56 AM 44.1 °F 42.5 °F 42.1 °F 93% 30.10 in 10.0 mi NW 3.5 mph - N/A   Clear
1:56 AM 45.0 °F 42.6 °F 41.0 °F 86% 30.09 in 10.0 mi WNW 4.6 mph - N/A   Clear
2:56 AM 43.0 °F 41.3 °F 39.9 °F 89% 30.09 in 10.0 mi NW 3.5 mph - N/A   Clear
3:56 AM 43.0 °F 41.3 °F 39.9 °F 89% 30.08 in 10.0 mi NW 3.5 mph - N/A   Clear
4:56 AM 43.0 °F 41.3 °F 41.0 °F 93% 30.10 in 10.0 mi NW 3.5 mph - N/A   Clear
5:56 AM 39.0 °F 36.8 °F 37.0 °F 93% 30.11 in 5.0 mi NW 3.5 mph - N/A   Clear
6:46 AM 39.2 °F - 37.4 °F 93% 30.16 in 1.8 mi Calm Calm - N/A   Clear
6:56 AM 39.0 °F - 37.9 °F 96% 30.13 in 1.8 mi Calm Calm - N/A   Clear
7:17 AM 39.2 °F 37.0 °F 37.4 °F 93% 30.17 in 3.0 mi NW 3.5 mph - N/A   Clear
7:56 AM 45.0 °F - 43.0 °F 93% 30.15 in 10.0 mi Calm Calm - N/A   Clear
8:56 AM 53.1 °F - 46.0 °F 77% 30.17 in 10.0 mi Calm Calm - N/A   Clear
9:56 AM 61.0 °F - 39.0 °F 44% 30.17 in 10.0 mi North 8.1 mph - N/A   Clear
10:56 AM 64.0 °F - 37.9 °F 38% 30.14 in 10.0 mi NNW 6.9 mph - N/A   Clear
11:56 AM 66.0 °F - 37.0 °F 34% 30.11 in 10.0 mi NNW 9.2 mph - N/A   Clear
12:56 PM 66.0 °F - 37.0 °F 34% 30.09 in 10.0 mi North 9.2 mph - N/A   Clear
1:56 PM 66.0 °F - 37.9 °F 36% 30.08 in 10.0 mi North 6.9 mph - N/A   Clear
2:56 PM 66.0 °F - 37.9 °F 36% 30.09 in 10.0 mi NNW 8.1 mph - N/A   Clear
3:56 PM 64.9 °F - 39.0 °F 39% 30.09 in 10.0 mi NNW 9.2 mph - N/A   Clear
4:56 PM 61.0 °F - 39.9 °F 46% 30.11 in 10.0 mi NNW 6.9 mph - N/A   Clear
5:56 PM 55.9 °F - 39.9 °F 55% 30.12 in 10.0 mi NNW 5.8 mph - N/A   Clear
6:56 PM 54.0 °F - 39.9 °F 59% 30.14 in 10.0 mi NNW 5.8 mph - N/A   Clear
7:56 PM 54.0 °F - 39.9 °F 59% 30.15 in 10.0 mi North 6.9 mph - N/A   Clear
8:56 PM 52.0 °F - 39.9 °F 63% 30.17 in 10.0 mi North 5.8 mph - N/A   Clear
9:56 PM 50.0 °F - 39.0 °F 66% 30.18 in 10.0 mi NNW 5.8 mph - N/A   Clear
10:56 PM 50.0 °F - 37.9 °F 63% 30.16 in 10.0 mi North 8.1 mph - N/A   Clear
11:56 PM 48.9 °F - 37.0 °F 64% 30.16 in 10.0 mi North 9.2 mph - N/A   Clear